Location: Kumla
(59.1265°N, 15.1401°E)
Time: 08:18:44
(UTC+01:00)

Vanguard 1 Rocket - Pass Details

Date: 06 December 2023
Orbit: 653 x 4219 km, 34.3° (Epoch: 04 March)

Event Time Altitude Azimuth Distance (km) Brightness Sun altitude
Rises 09:34:36 0° 259° (W) 6,439 11.5 3.7°
Reaches altitude 10° 09:44:48 10° 225° (SW) 4,195 11.0 4.4°
Maximum altitude 09:45:57 10° 219° (SW) 4,031 11.0 4.5°
Drops below altitude 10° 09:47:01 10° 213° (SSW) 3,908 11.1 4.5°
Sets 09:53:39 0° 172° (S) 4,028 12.4 4.9°
